Weather in Cullera

Spain     39°10′00″N   0°15′30″E
temp.,
°C
wind,
m/s
gust,
m/s
humid.,
%
clouds,
%
prec.,
mm/h
press.,
hPa
HPBL,
m
25 may, wed
wed2523:00+19ne12147094 1.6 1011640
02:00+18n5759100 2.0 1013611
05:00+17nnw4753100 0.0 1013593
08:00+17nnw811521 0.0 10151004
11:00+19n574294 0.0 10171994
14:00+20ne765094 0.0 10181676
17:00+20ne455447 0.3 1018930
20:00+19e22610 0.3 1019458
26 may, thu
thu2623:00+17nnw11695 0.0 1022124
02:00+16w33725 0.0 102293
05:00+16w33685 0.0 102193
08:00+17wsw23615 0.0 1022113
11:00+21nne32454 0.0 1022564
14:00+22e53492 0.0 1022622
17:00+22se77571 0.0 1021608
20:00+21se66654 0.0 1021349
27 may, fri
fri2723:00+19se11760 0.0 102269
02:00+18w22731 0.0 102151
05:00+18wsw23672 0.0 102054
08:00+19w22600 0.0 102077
11:00+24ne21464 0.0 1020485
14:00+24e43511 0.0 1020493
17:00+23ese65620 0.0 1019490
20:00+22ese46660 0.0 1019291
28 may, sat
sat2823:00+21ene11730 0.0 102012
02:00+19wnw33800 0.0 101952
05:00+19wsw22720 0.0 101846
08:00+20wsw22640 0.0 101878
11:00+26se12485 0.0 1016396
14:00+26ese54497 0.0 1015532
17:00+28se77455 0.0 1012438
20:00+27se69500 0.0 1010150
29 may, sun
sun2923:00+22nnw45764 0.0 101292
02:00+21wnw22680 0.0 101116
05:00+22sw33565 0.0 101028
08:00+23w11533 0.0 101127
11:00+25ne43551 0.0 1011390
14:00+25ne43630 0.0 1011474
17:00+24ene55703 0.0 1010509
20:00+23ne446947 0.0 1011275